Tracking 23611 objects as of 17-Sep-2021
HD Live streaming from Space Station
objects crossing your sky now
Track INSPIRATION-4

DELTA 1 DEB

Track DELTA 1 DEB now!
10-day predictions


NORAD ID: 19594
Int'l Code: 1978-026HN
Perigee: 762.1 km
Apogee: 932.8 km
Inclination: 98.9 °
Period: 101.7 minutes
Semi major axis: 7218 km
RCS: 0.0101 m2 (small)
Launch date: March 5, 1978
Source: United States (US)
Launch site: AIR FORCE WESTERN TEST RANGE (AFWTR)

Note: This is SATELLITE DEBRIS
aabbcc
Your satellite tracking list
Your tracking list is empty




NASA's NSSDC Master Catalog

Two Line Element Set (TLE):
1 19594U 78026HN  21259.69265919  .00001240  00000-0  61305-3 0  9992
2 19594  98.9222 249.2634 0118253 155.3231 205.3664 14.15578169458204
Source of the keplerian elements: AFSPC